Regional Weather Roundup
Issued by NWS

Home | Current Version | Previous Version | Graphics & Text | Print | Product List | Glossary On
Versions: 1 2 3 4 5 6 7 8 9 10 11 12 13 14 15 16 17 18 19 20 21 22 23 24 25 26 27 28 29 30 31 32 33 34 35 36 37 38 39 40 41 42 43 44 45 46 47 48 49 50
000
ASUS43 KOAX 231302
RWRNE

WEATHER ROUNDUP FOR NEBRASKA
NATIONAL WEATHER SERVICE OMAHA NE
800 AM CDT WED APR 23 2014

NOTES: SATELLITE DATA IS BEING USED TO AUGMENT CLOUD COVER ABOVE
       12000 FEET.
       "FAIR" INDICATES FEW OR NO CLOUDS BELOW 12,000 FEET WITH NO
       SIGNIFICANT WEATHER AND/OR OBSTRUCTIONS TO VISIBILITY.

  * THESE STATIONS DO NOT REPORT WEATHER SUCH AS RAIN...SNOW OR FOG.

NEZ001>004-019>022-054>056-231400-
NEBRASKA PANHANDLE

CITY           SKY/WX    TMP DP  RH WIND       PRES   REMARKS
SCOTTSBLUFF    CLOUDY    51  44  77 W7        29.57R
ALLIANCE       CLOUDY    51  45  79 SW3       29.53R
CHADRON        CLOUDY    57  45  64 W12       29.52R
KIMBALL        MOCLDY    49  38  64 NW14      29.58R
SIDNEY         CLOUDY    49  42  77 SW9       29.54R
$$

NEZ057>060-069>072-079>082-231400-
SOUTHWEST NEBRASKA

CITY           SKY/WX    TMP DP  RH WIND       PRES   REMARKS
NORTH PLATTE   CLOUDY    56  41  57 SE15G23   29.58S
IMPERIAL       CLOUDY    58  43  57 S9        29.53F
LEXINGTON      CLOUDY    55  38  54 SE21G31   29.64F
MCCOOK         CLOUDY    56  46  69 SE10      29.60F
OGALLALA       CLOUDY    52  44  72 E9        29.53F
$$

NEZ005>010-023>029-035>040-094-231400-
NORTH CENTRAL NEBRASKA

CITY           SKY/WX    TMP DP  RH WIND       PRES   REMARKS
VALENTINE      CLOUDY    55  34  45 SE16      29.53F
AINSWORTH      CLOUDY    55  37  50 S24G30    29.54F
BROKEN BOW     PTSUNNY   53  36  52 SE20G30   29.64F
O`NEILL        PTSUNNY   54  35  48 SE23G33   29.67F
ORD            CLOUDY    54  38  54 SE18G29   29.67F
THEDFORD       CLOUDY    56  36  46 SE22G30   29.55F
$$

NEZ041-046>049-061>064-073>077-083>087-231400-
SOUTH CENTRAL NEBRASKA

CITY           SKY/WX    TMP DP  RH WIND       PRES   REMARKS
GRAND ISLAND   CLOUDY    53  39  59 S18G38    29.74S
AURORA         CLOUDY    53  41  64 SE24G31   29.75F
HASTINGS       CLOUDY    55  38  52 SE20G35   29.72F
HEBRON         CLOUDY    53  43  69 SE21G26   29.82F
HOLDREGE       CLOUDY    55  37  50 S24G30    29.68F
KEARNEY *      CLOUDY    54  37  54 S29G37    29.69F
YORK           LGT RAIN  50  41  71 SE23G31   29.79F
$$

NEZ011>018-030>034-042>045-231400-
NORTHEAST NEBRASKA

CITY           SKY/WX    TMP DP  RH WIND       PRES   REMARKS
NORFOLK        CLOUDY    52  38  58 SE23G36   29.77F
ALBION         CLOUDY    52  38  60 S21       29.75S
BLAIR          CLOUDY    54  34  46 SE22G32   29.90F
COLUMBUS *     CLOUDY    52  37  58 SE20G29   29.81F
FREMONT        CLOUDY    54  36  50 SE15G30   29.89S
TEKAMAH        CLOUDY    53  36  52 SE17      29.92S
$$

NEZ050>053-065>068-078-088>093-231400-
SOUTHEAST NEBRASKA

CITY           SKY/WX    TMP DP  RH WIND       PRES   REMARKS
LINCOLN        LGT RAIN  53  40  61 SE20G26   29.89F
OMAHA EPPLEY   LGT RAIN  52  39  61 SE18      29.94F
BEATRICE       LGT RAIN  51  42  70 SE17      29.87F
FALLS CITY     LGT RAIN  54  38  54 SE9       29.97R
NEBRASKA CITY  RAIN      52  39  60 SE12      29.94F
PLATTSMOUTH    LGT RAIN  54  34  46 SE20G26   29.94S
$$

NEZ044-045-051>053-067-231400-
OMAHA AREA

CITY           SKY/WX    TMP DP  RH WIND       PRES   REMARKS
OMAHA EPPLEY   LGT RAIN  52  39  61 SE18      29.94F
BLAIR          CLOUDY    54  34  46 SE22G32   29.90F
FREMONT        CLOUDY    54  36  50 SE15G30   29.89S
MILLARD        LGT RAIN  51  38  61 SE13G24   29.91F
OFFUTT AFB     LGT RAIN  51  39  63 SE15      29.95S
PLATTSMOUTH    LGT RAIN  54  34  46 SE20G26   29.94S
WAHOO          DRIZZLE   50  40  69 SE21      29.88F
$$



USA.gov is the U.S. government's official web portal to all federal, state and local government web resources and services.